Location: Nantong Television Tower
(32.0188°N, 120.8512°E)
Time: 10:22:42
(UTC+08:00)

Vanguard 3 - Visible Passes

Search period start: 05 August 2015 00:00
Search period end: 15 August 2015 00:00
Orbit: 508 x 3270 km, 33.3° (Epoch: 03 August)

Date Brightness Start Highest point End Pass type
(mag) Time Alt. Az. Time Alt. Az. Time Alt. Az.
05 Aug 11.3 04:49:17 10° S 05:01:47 23° SE 05:15:34 10° E visible
06 Aug 11.4 03:41:48 10° SSE 03:46:18 12° SE 03:53:27 10° ESE visible
07 Aug 11.1 04:32:56 10° S 04:46:26 27° SE 05:01:35 10° E visible
08 Aug 11.3 03:23:38 10° SSE 03:31:08 15° SE 03:41:22 10° ESE visible
09 Aug 11.0 04:16:59 10° SSW 04:30:58 31° SE 04:47:13 10° E visible
10 Aug 11.1 03:06:47 10° SSE 03:15:52 18° SE 03:27:56 10° E visible
11 Aug 10.9 04:01:21 10° SSW 04:15:27 35° SE 04:32:34 10° E visible
12 Aug 10.9 02:50:37 10° S 03:00:32 21° SE 03:13:51 10° E visible
13 Aug 10.7 03:46:10 11° SSW 03:59:54 40° SE 04:17:40 10° E visible
14 Aug 10.6 02:37:19 15° S 02:45:09 25° SE 02:59:20 10° E visible
14 Aug 10.4 04:43:37 10° SW 04:59:48 60° SSE 05:19:14 10° ENE visible
